Regional Weather Roundup
Issued by NWS

Home | Current Version | Previous Version | Text Only | Print | Product List | Glossary Off
Versions: 1 2 3 4 5 6 7 8 9 10 11 12 13 14 15 16 17 18 19 20 21 22 23 24 25 26 27 28 29 30 31 32 33 34 35 36 37 38 39 40 41 42 43 44 45 46 47 48 49 50

000
ASUS43 KTOP 272208
RWRKS

WEATHER ROUNDUP FOR KANSAS
NATIONAL WEATHER SERVICE GOODLAND KS
500 PM CDT MON JUL 27 2015

NOTE:  "FAIR" INDICATES FEW OR NO CLOUDS BELOW 12,000 FEET WITH NO
SIGNIFICANT WEATHER AND/OR OBSTRUCTIONS TO VISIBILITY.

KSZ001>006-013>018-027>032-041>047-272300-
NORTHWEST KANSAS

CITY           SKY/WX    TMP DP  RH WIND       PRES   REMARKS
GOODLAND       MOSUNNY   91  67  44 S21       29.82F
HAYS           FAIR      95  68  41 S24G31    29.81F HX  99
HILL CITY      FAIR      96  70  42 S21G30    29.79  HX 102
RUSSELL        FAIR      94  68  42 S22       29.80F HX  98
$$

KSZ061>065-074>080-084>089-272300-
SOUTHWEST KANSAS

CITY           SKY/WX    TMP DP  RH WIND       PRES   REMARKS
DODGE CITY     FAIR      95  64  35 S24G36    29.84F HX  97
ELKHART          N/A     96  57  27 S15         N/A  HX  95
GARDEN CITY    FAIR      93  67  42 S22G31    29.82F HX  96
GREAT BEND     FAIR      97  66  36 S25G31    29.80F HX 100
LIBERAL        FAIR      99  66  34 S23G30    29.83F HX 102
PRATT          FAIR      95  55  26 S21G28    29.86F
$$

KSZ066>073-081>083-090>101-272300-
SOUTHEAST KANSAS

CITY           SKY/WX    TMP DP  RH WIND       PRES   REMARKS
CHANUTE        FAIR      94  73  50 S12       29.89F HX 103
COFFEYVILLE    FAIR      95  74  50 S13       29.88F HX 105
HUTCHINSON     FAIR     100  60  26 S20G28    29.84F HX 100
MEDICINE LODGE   N/A     97  66  36 S13G21    29.83F HX 100
NEWTON         FAIR      99  57  25 S18G24    29.90F HX  97
PARSONS        FAIR      94  75  54 S10       29.90F HX 105
WICHITA INTL   FAIR      97  63  32 S17       29.85F HX  98
WICHITA JABRA  FAIR      96  64  34 S17G24    29.86F HX  98
WICHITA MCCONL FAIR      96  64  34 SE18G24   29.86F HX  97
WINFIELD       FAIR      94  70  45 SE12      29.87F HX 100
$$

KSZ007>012-019>026-033>040-048>060-102>105-272300-
NORTHEAST KANSAS

CITY           SKY/WX    TMP DP  RH WIND       PRES   REMARKS
CONCORDIA      FAIR      92  71  50 S15       29.82F HX  98
EMPORIA        FAIR      97  65  34 S16       29.87F HX  99
LAWRENCE       FAIR      94  74  52 S9        29.86F HX 104
MANHATTAN      FAIR      96  72  45 S12       29.83F HX 104
MARYSVILLE     FAIR      90  77  66 SE8       29.84F HX 102
OLATHE IND     FAIR      94  74  52 S14       29.89F HX 104
OLATHE EXE     FAIR      90  74  59 SW8       29.88F HX  99
SALINA         FAIR      97  69  40 S17G26    29.82F HX 103
TOPEKA BILLARD FAIR      95  73  48 S17       29.85F HX 104
TOPEKA FORBES  FAIR      96  71  44 S13       29.85F HX 103
$$


USA.gov is the U.S. government's official web portal to all federal, state and local government web resources and services.